Time,TemperatureF,DewpointF,PressureIn,WindDirection,WindDirectionDegrees,WindSpeedMPH,WindSpeedGustMPH,Humidity,HourlyPrecipIn,Conditions,Clouds,dailyrainin,SoftwareType,DateUTC
2013-04-09 00:02:00,69.0,22.0,29.56,SW,216,15.0,22.0,17,-99.99,,,-99.99,,2013-04-09 06:02:00,
2013-04-09 00:12:00,68.0,22.0,29.55,South,181,13.0,20.0,17,-99.99,,,-99.99,,2013-04-09 06:12:00,
2013-04-09 00:22:00,67.0,21.0,29.55,SSW,195,10.0,13.0,17,-99.99,,,-99.99,,2013-04-09 06:22:00,
2013-04-09 00:32:00,67.0,21.0,29.55,SSW,194,13.0,16.0,17,-99.99,,,-99.99,,2013-04-09 06:32:00,
2013-04-09 00:42:00,66.0,20.0,29.55,South,187,10.0,13.0,17,-99.99,,,-99.99,,2013-04-09 06:42:00,
2013-04-09 00:52:00,65.0,19.0,29.55,South,190,12.0,14.0,17,-99.99,,,-99.99,,2013-04-09 06:52:00,
2013-04-09 01:02:00,65.0,19.0,29.55,South,186,10.0,13.0,17,-99.99,,,-99.99,,2013-04-09 07:02:00,
2013-04-09 01:13:00,65.0,19.0,29.55,South,189,10.0,14.0,17,-99.99,,,-99.99,,2013-04-09 07:13:00,
2013-04-09 01:22:00,65.0,20.0,29.54,SSW,204,14.0,20.0,17,-99.99,,,-99.99,,2013-04-09 07:22:00,
2013-04-09 01:32:00,66.0,19.0,29.55,SSW,207,18.0,27.0,16,-99.99,,,-99.99,,2013-04-09 07:32:00,
2013-04-09 01:42:00,67.0,20.0,29.54,SW,214,16.0,24.0,16,-99.99,,,-99.99,,2013-04-09 07:42:00,
2013-04-09 01:52:00,67.0,19.0,29.54,SSW,212,15.0,20.0,16,-99.99,,,-99.99,,2013-04-09 07:52:00,
2013-04-09 02:03:00,67.0,20.0,29.54,SSW,213,15.0,22.0,17,-99.99,,,-99.99,,2013-04-09 08:03:00,
2013-04-09 02:12:00,66.0,20.0,29.53,SSW,208,16.0,25.0,17,-99.99,,,-99.99,,2013-04-09 08:12:00,
2013-04-09 02:22:00,66.0,21.0,29.54,SSW,202,18.0,29.0,18,-99.99,,,-99.99,,2013-04-09 08:22:00,
2013-04-09 02:32:00,66.0,21.0,29.54,SW,220,14.0,20.0,18,-99.99,,,-99.99,,2013-04-09 08:32:00,
2013-04-09 02:42:00,64.0,22.0,29.54,WSW,254,9.0,15.0,20,-99.99,,,-99.99,,2013-04-09 08:42:00,
2013-04-09 02:52:00,62.0,24.0,29.54,West,271,10.0,13.0,23,-99.99,,,-99.99,,2013-04-09 08:52:00,
2013-04-09 03:02:00,61.0,25.0,29.54,WSW,255,7.0,9.0,25,-99.99,,,-99.99,,2013-04-09 09:02:00,
2013-04-09 03:12:00,60.0,25.0,29.54,West,279,9.0,10.0,26,-99.99,,,-99.99,,2013-04-09 09:12:00,
2013-04-09 03:22:00,59.0,25.0,29.54,West,267,9.0,12.0,27,-99.99,,,-99.99,,2013-04-09 09:22:00,
2013-04-09 03:33:00,60.0,26.0,29.54,West,260,8.0,12.0,28,-99.99,,,-99.99,,2013-04-09 09:33:00,
2013-04-09 03:43:00,59.0,27.0,29.55,WSW,258,6.0,9.0,29,-99.99,,,-99.99,,2013-04-09 09:43:00,
2013-04-09 03:52:00,59.0,26.0,29.55,West,259,6.0,9.0,29,-99.99,,,-99.99,,2013-04-09 09:52:00,
2013-04-09 04:03:00,58.0,28.0,29.56,West,261,7.0,12.0,31,-99.99,,,-99.99,,2013-04-09 10:03:00,
2013-04-09 04:13:00,60.0,30.0,29.56,WSW,257,10.0,15.0,32,-99.99,,,-99.99,,2013-04-09 10:13:00,
2013-04-09 04:23:00,60.0,29.0,29.57,WSW,256,15.0,21.0,30,-99.99,,,-99.99,,2013-04-09 10:23:00,
2013-04-09 04:33:00,60.0,29.0,29.57,WSW,251,12.0,17.0,30,-99.99,,,-99.99,,2013-04-09 10:33:00,
2013-04-09 04:42:00,60.0,28.0,29.58,WSW,252,16.0,25.0,29,-99.99,,,-99.99,,2013-04-09 10:42:00,
2013-04-09 04:52:00,61.0,27.0,29.58,WSW,256,18.0,27.0,27,-99.99,,,-99.99,,2013-04-09 10:52:00,
2013-04-09 05:02:00,61.0,24.0,29.59,WSW,255,23.0,35.0,24,-99.99,,,-99.99,,2013-04-09 11:02:00,
2013-04-09 05:12:00,61.0,23.0,29.59,WSW,249,25.0,46.0,23,-99.99,,,-99.99,,2013-04-09 11:12:00,
2013-04-09 05:22:00,61.0,24.0,29.59,WSW,252,21.0,30.0,24,-99.99,,,-99.99,,2013-04-09 11:22:00,
2013-04-09 05:32:00,61.0,24.0,29.59,WSW,255,27.0,41.0,24,-99.99,,,-99.99,,2013-04-09 11:32:00,
2013-04-09 05:42:00,60.0,24.0,29.59,WSW,252,23.0,38.0,25,-99.99,,,-99.99,,2013-04-09 11:42:00,
2013-04-09 05:52:00,60.0,24.0,29.60,WSW,253,17.0,25.0,25,-99.99,,,-99.99,,2013-04-09 11:52:00,
2013-04-09 06:02:00,59.0,24.0,29.61,WSW,258,16.0,24.0,26,-99.99,,,-99.99,,2013-04-09 12:02:00,
2013-04-09 06:12:00,59.0,24.0,29.61,West,259,18.0,28.0,26,-99.99,,,-99.99,,2013-04-09 12:12:00,
2013-04-09 06:22:00,58.0,24.0,29.62,West,267,13.0,18.0,27,-99.99,,,-99.99,,2013-04-09 12:22:00,
2013-04-09 06:32:00,57.0,27.0,29.63,West,266,13.0,16.0,31,-99.99,,,-99.99,,2013-04-09 12:32:00,
2013-04-09 06:42:00,57.0,27.0,29.64,West,272,12.0,15.0,32,-99.99,,,-99.99,,2013-04-09 12:42:00,
2013-04-09 06:52:00,56.0,28.0,29.64,West,281,12.0,16.0,34,-99.99,,,-99.99,,2013-04-09 12:52:00,
2013-04-09 07:02:00,55.0,28.0,29.65,WNW,292,12.0,15.0,35,-99.99,,,-99.99,,2013-04-09 13:02:00,
2013-04-09 07:12:00,55.0,31.0,29.67,NW,322,21.0,29.0,39,-99.99,,,-99.99,,2013-04-09 13:12:00,
2013-04-09 07:23:00,52.0,36.0,29.68,WNW,302,30.0,38.0,53,-99.99,,,-99.99,,2013-04-09 13:23:00,
2013-04-09 07:32:00,51.0,36.0,29.68,WNW,301,22.0,30.0,56,-99.99,,,-99.99,,2013-04-09 13:32:00,
2013-04-09 07:42:00,51.0,35.0,29.69,WNW,287,22.0,27.0,56,-99.99,,,-99.99,,2013-04-09 13:42:00,
2013-04-09 07:52:00,50.0,35.0,29.69,West,279,16.0,28.0,55,-99.99,,,-99.99,,2013-04-09 13:52:00,
2013-04-09 08:03:00,51.0,33.0,29.68,West,270,24.0,32.0,51,-99.99,,,-99.99,,2013-04-09 14:03:00,
2013-04-09 08:12:00,52.0,32.0,29.69,West,275,22.0,33.0,46,-99.99,,,-99.99,,2013-04-09 14:12:00,
2013-04-09 08:22:00,52.0,31.0,29.69,West,279,27.0,36.0,45,-99.99,,,-99.99,,2013-04-09 14:22:00,
2013-04-09 08:32:00,52.0,31.0,29.69,West,275,27.0,37.0,45,-99.99,,,-99.99,,2013-04-09 14:32:00,
2013-04-09 08:42:00,51.0,33.0,29.69,West,275,23.0,35.0,50,-99.99,,,-99.99,,2013-04-09 14:42:00,
2013-04-09 08:52:00,51.0,34.0,29.70,West,277,27.0,37.0,52,-99.99,,,-99.99,,2013-04-09 14:52:00,
2013-04-09 09:02:00,49.0,38.0,29.71,West,270,23.0,38.0,65,-99.99,,,-99.99,,2013-04-09 15:02:00,
2013-04-09 09:12:00,47.0,38.0,29.72,West,267,22.0,35.0,69,-99.99,,,-99.99,,2013-04-09 15:12:00,
2013-04-09 09:22:00,47.0,38.0,29.73,West,281,20.0,33.0,70,-99.99,,,-99.99,,2013-04-09 15:22:00,
2013-04-09 09:33:00,47.0,39.0,29.72,West,260,12.0,21.0,72,-99.99,,,-99.99,,2013-04-09 15:33:00,
2013-04-09 09:43:00,49.0,37.0,29.73,West,263,18.0,30.0,63,-99.99,,,-99.99,,2013-04-09 15:43:00,
2013-04-09 09:53:00,50.0,36.0,29.73,West,261,16.0,22.0,60,-99.99,,,-99.99,,2013-04-09 15:53:00,
2013-04-09 10:03:00,51.0,38.0,29.74,WSW,256,17.0,29.0,61,-99.99,,,-99.99,,2013-04-09 16:03:00,
2013-04-09 10:13:00,50.0,37.0,29.75,West,281,35.0,46.0,62,-99.99,,,-99.99,,2013-04-09 16:13:00,
2013-04-09 10:23:00,48.0,38.0,29.74,West,260,16.0,25.0,67,-99.99,,,-99.99,,2013-04-09 16:23:00,
2013-04-09 10:33:00,49.0,37.0,29.74,West,266,16.0,24.0,61,-99.99,,,-99.99,,2013-04-09 16:33:00,
2013-04-09 10:42:00,51.0,37.0,29.75,WSW,257,15.0,23.0,57,-99.99,,,-99.99,,2013-04-09 16:42:00,
2013-04-09 10:53:00,52.0,33.0,29.75,WSW,253,15.0,24.0,48,-99.99,,,-99.99,,2013-04-09 16:53:00,
2013-04-09 11:02:00,52.0,33.0,29.75,WSW,253,15.0,24.0,48,-99.99,,,-99.99,,2013-04-09 17:02:00,
2013-04-09 11:12:00,53.0,31.0,29.75,West,269,20.0,28.0,43,-99.99,,,-99.99,,2013-04-09 17:12:00,
2013-04-09 11:23:00,53.0,30.0,29.75,West,263,17.0,23.0,41,-99.99,,,-99.99,,2013-04-09 17:23:00,
2013-04-09 11:32:00,54.0,30.0,29.74,West,275,17.0,23.0,41,-99.99,,,-99.99,,2013-04-09 17:32:00,
2013-04-09 11:42:00,54.0,29.0,29.75,WSW,250,13.0,21.0,38,-99.99,,,-99.99,,2013-04-09 17:42:00,
2013-04-09 11:53:00,54.0,28.0,29.75,WSW,255,14.0,21.0,36,-99.99,,,-99.99,,2013-04-09 17:53:00,
2013-04-09 12:02:00,55.0,26.0,29.75,WNW,283,18.0,25.0,33,-99.99,,,-99.99,,2013-04-09 18:02:00,
2013-04-09 12:12:00,55.0,24.0,29.74,West,273,20.0,29.0,30,-99.99,,,-99.99,,2013-04-09 18:12:00,
2013-04-09 12:22:00,56.0,25.0,29.74,West,259,15.0,24.0,30,-99.99,,,-99.99,,2013-04-09 18:22:00,
2013-04-09 12:33:00,56.0,23.0,29.74,WSW,257,14.0,22.0,28,-99.99,,,-99.99,,2013-04-09 18:33:00,
2013-04-09 12:43:00,56.0,23.0,29.74,West,261,17.0,25.0,27,-99.99,,,-99.99,,2013-04-09 18:43:00,
2013-04-09 12:52:00,57.0,22.0,29.74,West,266,14.0,21.0,26,-99.99,,,-99.99,,2013-04-09 18:52:00,
2013-04-09 13:02:00,57.0,21.0,29.74,West,269,18.0,27.0,25,-99.99,,,-99.99,,2013-04-09 19:02:00,
2013-04-09 13:12:00,57.0,21.0,29.74,West,269,18.0,27.0,25,-99.99,,,-99.99,,2013-04-09 19:12:00,
2013-04-09 13:22:00,57.0,22.0,29.74,West,269,18.0,27.0,25,-99.99,,,-99.99,,2013-04-09 19:22:00,
2013-04-09 13:32:00,57.0,22.0,29.74,West,269,18.0,27.0,25,-99.99,,,-99.99,,2013-04-09 19:32:00,
2013-04-09 13:53:00,59.0,17.0,29.72,West,275,20.0,25.0,19,-99.99,,,-99.99,,2013-04-09 19:53:00,
2013-04-09 14:02:00,59.0,17.0,29.71,WSW,255,21.0,32.0,19,-99.99,,,-99.99,,2013-04-09 20:02:00,
2013-04-09 14:12:00,59.0,17.0,29.70,WSW,250,17.0,28.0,19,-99.99,,,-99.99,,2013-04-09 20:12:00,
2013-04-09 14:22:00,59.0,17.0,29.70,West,264,18.0,24.0,19,-99.99,,,-99.99,,2013-04-09 20:22:00,
2013-04-09 14:33:00,59.0,18.0,29.70,WNW,284,17.0,28.0,20,-99.99,,,-99.99,,2013-04-09 20:33:00,
2013-04-09 14:43:00,60.0,15.0,29.70,West,262,16.0,27.0,17,-99.99,,,-99.99,,2013-04-09 20:43:00,
2013-04-09 14:52:00,60.0,15.0,29.71,West,276,23.0,32.0,17,-99.99,,,-99.99,,2013-04-09 20:52:00,
2013-04-09 15:02:00,60.0,15.0,29.70,West,273,20.0,28.0,17,-99.99,,,-99.99,,2013-04-09 21:02:00,
2013-04-09 15:13:00,60.0,15.0,29.71,West,269,23.0,31.0,17,-99.99,,,-99.99,,2013-04-09 21:13:00,
2013-04-09 15:22:00,60.0,15.0,29.71,West,269,23.0,31.0,17,-99.99,,,-99.99,,2013-04-09 21:22:00,
2013-04-09 15:33:00,61.0,16.0,29.70,West,263,20.0,30.0,17,-99.99,,,-99.99,,2013-04-09 21:33:00,
2013-04-09 15:42:00,61.0,16.0,29.70,West,263,20.0,30.0,17,-99.99,,,-99.99,,2013-04-09 21:42:00,
2013-04-09 15:53:00,63.0,13.0,29.70,West,275,32.0,46.0,14,-99.99,,,-99.99,,2013-04-09 21:53:00,
2013-04-09 16:03:00,62.0,15.0,29.70,West,278,24.0,35.0,16,-99.99,,,-99.99,,2013-04-09 22:03:00,
2013-04-09 16:12:00,62.0,18.0,29.70,West,263,27.0,40.0,18,-99.99,,,-99.99,,2013-04-09 22:12:00,
2013-04-09 16:23:00,62.0,17.0,29.70,West,278,22.0,29.0,17,-99.99,,,-99.99,,2013-04-09 22:23:00,
2013-04-09 16:33:00,63.0,17.0,29.69,West,281,31.0,46.0,17,-99.99,,,-99.99,,2013-04-09 22:33:00,
2013-04-09 16:42:00,62.0,18.0,29.69,WNW,298,29.0,40.0,18,-99.99,,,-99.99,,2013-04-09 22:42:00,
2013-04-09 16:53:00,62.0,16.0,29.70,WNW,295,24.0,33.0,17,-99.99,,,-99.99,,2013-04-09 22:53:00,
2013-04-09 17:03:00,62.0,20.0,29.71,WNW,292,30.0,41.0,20,-99.99,,,-99.99,,2013-04-09 23:03:00,
2013-04-09 17:12:00,62.0,21.0,29.71,WNW,289,24.0,35.0,21,-99.99,,,-99.99,,2013-04-09 23:12:00,
2013-04-09 17:22:00,60.0,20.0,29.71,WNW,296,23.0,30.0,21,-99.99,,,-99.99,,2013-04-09 23:22:00,
2013-04-09 17:32:00,59.0,18.0,29.72,WNW,288,22.0,30.0,20,-99.99,,,-99.99,,2013-04-09 23:32:00,
2013-04-09 17:42:00,60.0,17.0,29.72,WNW,289,23.0,33.0,19,-99.99,,,-99.99,,2013-04-09 23:42:00,
2013-04-09 17:52:00,59.0,17.0,29.72,WNW,296,23.0,31.0,19,-99.99,,,-99.99,,2013-04-09 23:52:00,
2013-04-09 18:03:00,60.0,17.0,29.73,WNW,288,21.0,31.0,19,-99.99,,,-99.99,,2013-04-10 00:03:00,
2013-04-09 18:12:00,60.0,17.0,29.73,WNW,288,21.0,31.0,19,-99.99,,,-99.99,,2013-04-10 00:12:00,
2013-04-09 18:23:00,58.0,17.0,29.73,NW,307,18.0,31.0,20,-99.99,,,-99.99,,2013-04-10 00:23:00,
2013-04-09 18:32:00,58.0,16.0,29.75,West,279,14.0,22.0,19,-99.99,,,-99.99,,2013-04-10 00:32:00,
2013-04-09 18:42:00,58.0,17.0,29.76,WNW,303,16.0,21.0,20,-99.99,,,-99.99,,2013-04-10 00:42:00,
2013-04-09 18:52:00,58.0,17.0,29.76,NW,311,15.0,20.0,20,-99.99,,,-99.99,,2013-04-10 00:52:00,
2013-04-09 19:02:00,58.0,18.0,29.75,NW,314,20.0,25.0,21,-99.99,,,-99.99,,2013-04-10 01:02:00,
2013-04-09 19:12:00,57.0,20.0,29.79,West,266,16.0,22.0,23,-99.99,,,-99.99,,2013-04-10 01:12:00,
2013-04-09 19:23:00,57.0,21.0,29.76,NNW,329,13.0,17.0,24,-99.99,,,-99.99,,2013-04-10 01:23:00,
2013-04-09 19:32:00,58.0,20.0,29.78,NW,306,13.0,17.0,23,-99.99,,,-99.99,,2013-04-10 01:32:00,
2013-04-09 19:42:00,57.0,20.0,29.79,WNW,300,10.0,14.0,23,-99.99,,,-99.99,,2013-04-10 01:42:00,
2013-04-09 19:52:00,57.0,20.0,29.78,WNW,290,14.0,25.0,23,-99.99,,,-99.99,,2013-04-10 01:52:00,
2013-04-09 20:02:00,57.0,19.0,29.79,WNW,288,16.0,22.0,23,-99.99,,,-99.99,,2013-04-10 02:02:00,
2013-04-09 20:12:00,57.0,18.0,29.79,WNW,288,15.0,20.0,22,-99.99,,,-99.99,,2013-04-10 02:12:00,
2013-04-09 20:22:00,56.0,18.0,29.80,WNW,293,13.0,17.0,22,-99.99,,,-99.99,,2013-04-10 02:22:00,
2013-04-09 20:32:00,56.0,19.0,29.80,WNW,303,16.0,22.0,23,-99.99,,,-99.99,,2013-04-10 02:32:00,
2013-04-09 20:43:00,56.0,21.0,29.80,NW,304,15.0,22.0,26,-99.99,,,-99.99,,2013-04-10 02:43:00,
2013-04-09 20:52:00,56.0,21.0,29.80,NW,307,13.0,17.0,26,-99.99,,,-99.99,,2013-04-10 02:52:00,
2013-04-09 21:02:00,55.0,22.0,29.83,WNW,301,12.0,17.0,27,-99.99,,,-99.99,,2013-04-10 03:02:00,
2013-04-09 21:12:00,55.0,22.0,29.83,NW,310,16.0,22.0,27,-99.99,,,-99.99,,2013-04-10 03:12:00,
2013-04-09 21:22:00,55.0,23.0,29.84,NW,313,13.0,17.0,29,-99.99,,,-99.99,,2013-04-10 03:22:00,
2013-04-09 21:33:00,55.0,24.0,29.85,NW,305,15.0,20.0,30,-99.99,,,-99.99,,2013-04-10 03:33:00,
2013-04-09 21:43:00,55.0,24.0,29.87,NW,306,13.0,15.0,30,-99.99,,,-99.99,,2013-04-10 03:43:00,
2013-04-09 21:52:00,54.0,25.0,29.84,NNW,332,15.0,20.0,32,-99.99,,,-99.99,,2013-04-10 03:52:00,
2013-04-09 22:03:00,54.0,25.0,29.84,NNW,340,13.0,18.0,32,-99.99,,,-99.99,,2013-04-10 04:03:00,
2013-04-09 22:13:00,53.0,25.0,29.87,NW,319,14.0,20.0,33,-99.99,,,-99.99,,2013-04-10 04:13:00,
2013-04-09 22:23:00,53.0,25.0,29.87,NW,316,14.0,18.0,33,-99.99,,,-99.99,,2013-04-10 04:23:00,
2013-04-09 22:33:00,53.0,25.0,29.85,NW,318,17.0,22.0,33,-99.99,,,-99.99,,2013-04-10 04:33:00,
2013-04-09 22:42:00,53.0,25.0,29.88,NW,307,14.0,17.0,33,-99.99,,,-99.99,,2013-04-10 04:42:00,
2013-04-09 22:52:00,53.0,25.0,29.87,NW,310,16.0,21.0,34,-99.99,,,-99.99,,2013-04-10 04:52:00,
2013-04-09 23:02:00,53.0,26.0,29.89,WNW,299,12.0,16.0,35,-99.99,,,-99.99,,2013-04-10 05:02:00,
2013-04-09 23:13:00,52.0,26.0,29.90,West,280,13.0,16.0,36,-99.99,,,-99.99,,2013-04-10 05:13:00,
2013-04-09 23:23:00,52.0,27.0,29.89,WNW,299,10.0,13.0,37,-99.99,,,-99.99,,2013-04-10 05:23:00,
2013-04-09 23:33:00,52.0,27.0,29.89,WNW,291,10.0,14.0,37,-99.99,,,-99.99,,2013-04-10 05:33:00,
2013-04-09 23:42:00,52.0,27.0,29.90,WNW,296,9.0,12.0,38,-99.99,,,-99.99,,2013-04-10 05:42:00,
2013-04-09 23:53:00,52.0,27.0,29.89,NW,313,9.0,12.0,38,-99.99,,,-99.99,,2013-04-10 05:53:00,